Weather History for Morganton, NC

Change the Weather History Date:

Monday, April 28, 2014

  Actual Average (KHKY) Record (KHKY)
Temperature  
Mean Temperature 66 °F -  
Max Temperature 75 °F 72 °F 91 °F (1981)
Min Temperature 57 °F 49 °F 35 °F (1993)
Cooling Degree Days 2    
Growing Degree Days 16 (Base 50)    
Moisture  
Dew Point 57 °F    
Average Humidity 76    
Maximum Humidity 93    
Minimum Humidity 62    
Precipitation  
Precipitation 0.00 in - - ()
Sea Level Pressure  
Sea Level Pressure 29.98 in    
Wind  
Wind Speed 2 mph (NE)    
Max Wind Speed 9 mph    
Max Gust Speed -    
Visibility 10 miles    
Events Rain    
Averages and records for this station are not official NWS values.
T = Trace of Precipitation, MM = Missing Value Source: NWS Daily Summary

Daily Weather History Graph

Daily Weather History Graph

Search for Another Location

Airport:

Trip Planner

Search our weather history database for the weather conditions in past years. The results will help you decide how hot, cold, wet, or windy it might be!

Date:

Astronomy

Apr. 28, 2014 Rise Set
Actual Time 6:37 AM EDT 8:10 PM EDT
Civil Twilight 6:10 AM EDT 8:38 PM EDT
Nautical Twilight 5:37 AM EDT 9:10 PM EDT
Astronomical Twilight 5:03 AM EDT 9:45 PM EDT
Moon 6:12 AM EDT 7:48 PM EDT
Length of Visible Light 14h 27m
Length of Day
13h 33m
Waning Crescent, 0% of the Moon is Illuminated
Apr 28
Waning Crescent
Apr 29
New
May 6
First Quarter
May 14
Full
May 21
Last Quarter

Hourly Weather History & Observations

Time (EDT) Temp. Dew Point Humidity Pressure Visibility Wind Dir Wind Speed Gust Speed Precip Events Conditions
12:15 AM 61.2 °F 55.2 °F 81% 30.00 in 10.0 mi Calm Calm - N/A   Clear
12:35 AM 59.9 °F 55.2 °F 84% 30.00 in 10.0 mi Calm Calm - N/A   Clear
12:55 AM 60.3 °F 55.8 °F 85% 30.00 in 10.0 mi Calm Calm - N/A   Clear
1:15 AM 59.5 °F 55.0 °F 85% 29.99 in 10.0 mi Calm Calm - N/A   Clear
1:35 AM 60.3 °F 55.0 °F 83% 29.99 in 10.0 mi Calm Calm - N/A   Clear
1:55 AM 60.4 °F 55.9 °F 85% 29.99 in 10.0 mi Calm Calm - N/A   Clear
2:15 AM 61.9 °F 56.7 °F 83% 29.99 in 10.0 mi Calm Calm - N/A   Clear
2:35 AM 60.8 °F 56.3 °F 85% 29.98 in 10.0 mi Calm Calm - N/A   Scattered Clouds
2:55 AM 61.9 °F 55.6 °F 80% 29.97 in 10.0 mi Calm Calm - N/A   Mostly Cloudy
3:15 AM 61.2 °F 56.7 °F 85% 29.98 in 10.0 mi Calm Calm - N/A   Mostly Cloudy
3:35 AM 60.8 °F 57.0 °F 87% 29.99 in 10.0 mi Calm Calm - N/A   Overcast
3:55 AM 61.5 °F 56.5 °F 83% 29.99 in 10.0 mi Calm Calm - N/A Rain Light Rain
4:15 AM 60.4 °F 57.4 °F 90% 29.97 in 10.0 mi Calm Calm - N/A   Light Drizzle
4:35 AM 60.6 °F 58.6 °F 93% 29.98 in 10.0 mi Calm Calm - N/A   Mostly Cloudy
4:55 AM 61.2 °F 58.8 °F 92% 29.99 in 10.0 mi Calm Calm - N/A   Overcast
5:15 AM 61.3 °F 58.8 °F 91% 29.99 in 10.0 mi ENE 3.5 mph - N/A   Overcast
5:35 AM 62.1 °F 57.6 °F 85% 29.99 in 10.0 mi Calm Calm - N/A   Overcast
5:55 AM 62.6 °F 57.6 °F 84% 30.00 in 10.0 mi Calm Calm - N/A   Overcast
6:15 AM 62.1 °F 57.9 °F 86% 30.00 in 10.0 mi Calm Calm - N/A   Overcast
6:35 AM 61.5 °F 58.6 °F 90% 30.01 in 10.0 mi Calm Calm - N/A   Overcast
6:55 AM 61.7 °F 57.9 °F 87% 30.01 in 10.0 mi ENE 4.6 mph - N/A   Mostly Cloudy
7:15 AM 62.6 °F 57.6 °F 84% 30.01 in 10.0 mi ENE 4.6 mph - N/A   Scattered Clouds
7:35 AM 62.1 °F 56.3 °F 81% 30.02 in 10.0 mi North 5.8 mph - N/A Rain Light Rain
7:55 AM 61.7 °F 56.3 °F 82% 30.01 in 10.0 mi NNE 3.5 mph - N/A   Mostly Cloudy
8:15 AM 62.6 °F 56.3 °F 80% 30.01 in 10.0 mi North 5.8 mph - N/A   Mostly Cloudy
8:35 AM 63.9 °F 55.6 °F 74% 30.00 in 10.0 mi NNE 6.9 mph - N/A   Scattered Clouds
8:55 AM 64.4 °F 56.1 °F 74% 30.00 in 10.0 mi NNE 3.5 mph - N/A   Clear
9:15 AM 64.4 °F 56.3 °F 75% 30.00 in 10.0 mi Calm Calm - N/A   Clear
9:55 AM 66.4 °F 57.0 °F 72% 30.01 in 10.0 mi North 4.6 mph - N/A   Mostly Cloudy
10:15 AM 66.0 °F 56.5 °F 71% 30.02 in 10.0 mi North 4.6 mph - N/A   Overcast
10:55 AM 68.2 °F 57.6 °F 69% 30.01 in 10.0 mi NNE 3.5 mph - N/A   Overcast
11:15 AM 67.5 °F 58.3 °F 72% 30.01 in 10.0 mi ENE 3.5 mph - N/A   Overcast
11:35 AM 67.3 °F 58.8 °F 74% 30.02 in 10.0 mi East 3.5 mph - N/A   Overcast
12:15 PM 67.3 °F 59.2 °F 75% 30.01 in 10.0 mi East 6.9 mph - N/A   Overcast
12:35 PM 69.1 °F 59.7 °F 72% 30.00 in 10.0 mi East 6.9 mph - N/A   Mostly Cloudy
1:15 PM 69.1 °F 59.5 °F 72% 30.00 in 10.0 mi NE 3.5 mph - N/A   Mostly Cloudy
1:35 PM 69.1 °F 59.5 °F 72% 29.99 in 10.0 mi ENE 6.9 mph - N/A   Scattered Clouds
1:55 PM 70.7 °F 59.9 °F 69% 29.97 in 10.0 mi East 5.8 mph - N/A   Scattered Clouds
2:15 PM 72.9 °F 59.9 °F 64% 29.97 in 10.0 mi East 5.8 mph - N/A   Clear
2:35 PM 71.8 °F 60.3 °F 67% 29.96 in 10.0 mi ENE 8.1 mph - N/A   Scattered Clouds
2:55 PM 70.9 °F 60.1 °F 69% 29.96 in 10.0 mi East 3.5 mph - N/A   Scattered Clouds
3:15 PM 72.0 °F 60.8 °F 68% 29.96 in 10.0 mi SE 4.6 mph - N/A   Scattered Clouds
3:35 PM 72.0 °F 60.4 °F 67% 29.95 in 10.0 mi ESE 6.9 mph - N/A   Clear
3:55 PM 73.4 °F 61.2 °F 65% 29.94 in 10.0 mi ENE 6.9 mph - N/A   Clear
4:15 PM 73.4 °F 60.8 °F 65% 29.93 in 10.0 mi East 5.8 mph - N/A   Scattered Clouds
4:35 PM 73.2 °F 60.8 °F 65% 29.91 in 10.0 mi ESE 9.2 mph - N/A   Clear
5:15 PM 74.7 °F 61.0 °F 62% 29.90 in 10.0 mi East 5.8 mph - N/A   Clear
5:35 PM 74.5 °F 61.2 °F 63% 29.91 in 10.0 mi ENE 8.1 mph - N/A   Clear
5:55 PM 75.2 °F 61.5 °F 62% 29.92 in 10.0 mi East 5.8 mph - N/A   Clear
6:15 PM 74.7 °F 61.7 °F 64% 29.91 in 10.0 mi NE 4.6 mph - N/A   Clear
6:35 PM 73.0 °F 60.3 °F 64% 29.91 in 10.0 mi NE 5.8 mph - N/A   Scattered Clouds
6:55 PM 70.7 °F 59.2 °F 67% 29.91 in 10.0 mi NNE 5.8 mph - N/A   Clear
7:15 PM 69.6 °F 59.2 °F 69% 29.91 in 10.0 mi Calm Calm - N/A   Clear
7:35 PM 69.1 °F 59.9 °F 72% 29.93 in 10.0 mi NE 4.6 mph - N/A   Clear
7:55 PM 68.4 °F 59.5 °F 73% 29.94 in 10.0 mi East 3.5 mph - N/A   Clear
8:15 PM 66.6 °F 57.7 °F 73% 29.94 in 10.0 mi NNE 4.6 mph - N/A   Mostly Cloudy
8:35 PM 66.2 °F 57.7 °F 74% 29.94 in 10.0 mi ENE 5.8 mph - N/A   Scattered Clouds
8:55 PM 64.0 °F 55.9 °F 75% 29.96 in 10.0 mi NNE 3.5 mph - N/A   Scattered Clouds
9:15 PM 62.8 °F 54.7 °F 75% 29.96 in 10.0 mi Calm Calm - N/A   Mostly Cloudy
9:35 PM 62.2 °F 53.2 °F 72% 29.97 in 10.0 mi North 4.6 mph - N/A   Mostly Cloudy
9:55 PM 61.3 °F 52.9 °F 74% 29.98 in 10.0 mi NNE 3.5 mph - N/A   Mostly Cloudy
10:15 PM 60.1 °F 52.0 °F 75% 29.98 in 10.0 mi North 3.5 mph - N/A   Scattered Clouds
10:55 PM 59.0 °F 51.4 °F 76% 29.99 in 10.0 mi NNE 6.9 mph - N/A   Scattered Clouds
11:15 PM 58.5 °F 51.4 °F 77% 29.98 in 10.0 mi NE 3.5 mph - N/A   Scattered Clouds
11:35 PM 58.1 °F 51.4 °F 78% 29.99 in 10.0 mi North 4.6 mph - N/A   Scattered Clouds
11:55 PM 57.6 °F 51.6 °F 81% 29.98 in 10.0 mi NNE 4.6 mph - N/A   Clear